Location: Rio Negrinho
(26.2394°S, 49.4999°W)
Time: 17:57:08
(UTC+00:00)

Hubble Space Telescope - Pass Details

Date: 28 July 2021
Orbit: 535 x 539 km, 28.5° (Epoch: 22 September)

Event Time Altitude Azimuth Distance (km) Brightness Sun altitude
Exits shadow 09:30:56 - 281° (W) 2,182 3.3 -6.9°
Reaches altitude 10° 09:31:56 10° 281° (W) 1,791 2.9 -6.6°
Maximum altitude 09:36:05 85° 195° (SSW) 545 0.8 -5.8°
Drops below altitude 10° 09:40:16 10° 102° (ESE) 1,798 4.5 -4.9°
Sets 09:42:32 0° 102° (ESE) 2,692 5.5 -4.4°
